K4SOF Weather Reports


Display with metric or nautical units.
time (UTC)temp
F
wind
direction
speed
MPH
gust
MPH
rain 1hr
in
rain 24hr
in
rain mn
in
humidity
%
barometer
mb
20260510201915 80 236 0.0 1.0 0.00 0.00 0.00 71 1017.7
20260510201414 78 241 0.0 1.0 0.00 0.00 0.00 71 1017.8
20260510201134 78 289 2.0 3.0 0.00 0.00 0.00 69 1017.6
20260510200414 80 174 1.0 1.0 0.00 0.00 0.00 66 1017.7
20260510195900 80 250 0.0 3.0 0.00 0.00 0.00 65 1017.7
20260510195400 79 298 1.0 2.0 0.00 0.00 0.00 65 1017.9
20260510194900 79 240 2.0 4.0 0.00 0.00 0.00 65 1017.7
20260510194345 78 239 1.0 2.0 0.00 0.00 0.00 69 1017.9
20260510193845 79 222 2.0 2.0 0.00 0.00 0.00 66 1017.9
20260510193604 79 244 1.0 2.0 0.00 0.00 0.00 70 1018.0
20260510192845 78 232 0.0 1.0 0.00 0.00 0.00 67 1017.9
20260510192344 79 300 1.0 2.0 0.00 0.00 0.00 69 1017.8
20260510191845 78 222 2.0 4.0 0.00 0.00 0.00 71 1018.0
20260510191344 78 224 1.0 3.0 0.00 0.00 0.00 70 1018.0
20260510190844 78 154 2.0 2.0 0.00 0.00 0.00 68 1018.1
20260510190344 78 227 2.0 3.0 0.00 0.00 0.00 69 1018.0
20260510185830 76 212 1.0 1.0 0.00 0.00 0.00 72 1018.4
20260510185330 75 247 1.0 1.0 0.00 0.00 0.00 73 1018.4
20260510184829 74 250 0.0 1.0 0.00 0.00 0.00 76 1018.6
20260510184330 73 250 0.0 0.0 0.00 0.00 0.00 79 1018.6
20260510183830 75 173 2.0 3.0 0.00 0.00 0.00 75 1018.7
20260510183330 77 255 1.0 2.0 0.00 0.00 0.00 72 1018.5
20260510182829 76 250 0.0 1.0 0.00 0.00 0.00 74 1018.6
20260510182315 76 258 2.0 2.0 0.00 0.00 0.00 73 1018.7
20260510182259 77 251 1.0 1.0 0.00 0.00 0.00 71 1018.8
20260510181314 77 255 0.0 1.0 0.00 0.00 0.00 74 1018.8
20260510180814 75 352 1.0 3.0 0.00 0.00 0.00 77 1018.8
20260510180300 76 224 1.0 3.0 0.00 0.00 0.00 76 1018.9
20260510175800 76 231 0.0 1.0 0.00 0.00 0.00 77 1018.9
20260510175300 75 295 2.0 3.0 0.00 0.00 0.00 78 1019.0
20260510174800 75 222 1.0 2.0 0.00 0.00 0.00 79 1019.1
20260510174520 74 248 1.0 2.0 0.00 0.00 0.00 80 1019.2
20260510174021 73 258 2.0 2.0 0.00 0.00 0.00 81 1019.6
20260510173259 72 260 0.0 1.0 0.00 0.00 0.00 81 1019.6
20260510172759 72 225 0.0 1.0 0.00 0.00 0.00 84 1019.6
20260510172259 72 258 1.0 2.0 0.00 0.00 0.00 84 1019.6
20260510172021 71 276 0.0 1.0 0.00 0.00 0.00 83 1019.8
20260510171259 71 254 0.0 1.0 0.00 0.00 0.00 85 1019.7
20260510170759 70 236 0.0 1.0 0.00 0.00 0.00 86 1019.8
20260510170245 69 235 0.0 2.0 0.00 0.00 0.00 88 1020.0
20260510170230 70 242 2.0 2.0 0.00 0.00 0.00 85 1020.0
20260510165245 69 259 0.0 0.0 0.00 0.00 0.00 87 1020.0
20260510164745 69 273 1.0 1.0 0.00 0.00 0.00 88 1020.2
20260510164245 69 221 1.0 1.0 0.00 0.00 0.00 89 1020.0
20260510163745 69 261 1.0 3.0 0.00 0.00 0.00 88 1020.2
20260510163244 69 259 0.0 1.0 0.00 0.00 0.00 90 1019.9
20260510162729 69 226 0.0 1.0 0.00 0.00 0.00 87 1019.9
20260510162229 69 251 0.0 1.0 0.00 0.00 0.00 89 1019.9
20260510161729 69 217 1.0 3.0 0.00 0.00 0.00 90 1019.8
20260510161229 69 266 1.0 2.0 0.00 0.00 0.00 89 1019.6
20260510160714 69 276 1.0 1.0 0.00 0.00 0.00 90 1019.9
20260510160200 69 257 0.0 0.0 0.00 0.00 0.00 90 1019.9
20260510155700 70 268 1.0 1.0 0.00 0.00 0.00 90 1020.0
20260510155200 69 249 0.0 0.0 0.00 0.00 0.00 89 1019.9
20260510154700 68 239 0.0 0.0 0.00 0.00 0.00 91 1019.9
20260510154159 69 268 0.0 2.0 0.00 0.00 0.00 91 1019.7
20260510153700 69 231 0.0 0.0 0.00 0.00 0.00 90 1019.8
20260510153159 69 256 0.0 0.0 0.00 0.00 0.00 91 1019.8
20260510152659 69 248 0.0 0.0 0.00 0.00 0.00 90 1019.7
20260510152159 68 261 0.0 1.0 0.00 0.00 0.00 90 1019.9
20260510151659 68 206 1.0 1.0 0.00 0.00 0.00 90 1019.9
20260510151645 68 245 0.0 0.0 0.00 0.00 0.00 91 1019.9
20260510150659 67 226 0.0 0.0 0.00 0.00 0.00 93 1019.8
20260510150159 67 258 0.0 0.0 0.00 0.00 0.00 93 1019.9
20260510145659 66 238 1.0 1.0 0.00 0.00 0.00 94 1020.1
20260510145419 65 257 0.0 1.0 0.00 0.00 0.00 97 1019.9
20260510144659 65 241 0.0 1.0 0.00 0.00 0.00 99 1019.9
20260510144159 65 271 1.0 1.0 0.00 0.00 0.00 99 1020.1
20260510143659 65 258 0.0 0.0 0.00 0.00 0.00 99 1019.9
20260510143159 65 252 0.0 0.0 0.00 0.00 0.00 99 1020.1
20260510142659 64 262 0.0 0.0 0.00 0.00 0.00 99 1020.0
20260510142159 64 250 0.0 0.0 0.00 0.00 0.00 99 1020.1
20260510141658 63 233 0.0 1.0 0.00 0.00 0.00 99 1020.3
20260510141146 64 241 0.0 1.0 0.00 0.00 0.00 99 1020.2
20260510140644 64 242 0.0 1.0 0.00 0.00 0.00 99 1020.0
20260510140143 64 238 0.0 0.0 0.00 0.00 0.00 99 1020.1
20260510135643 63 236 1.0 2.0 0.00 0.00 0.00 99 1020.0
20260510135143 63 245 0.0 0.0 0.00 0.00 0.00 99 1020.1
20260510134643 63 233 0.0 0.0 0.00 0.00 0.00 99 1020.0
20260510134143 63 245 0.0 0.0 0.00 0.00 0.00 99 1020.2
20260510133643 63 251 0.0 1.0 0.00 0.00 0.00 99 1020.0
20260510133143 63 262 0.0 0.0 0.00 0.00 0.00 99 1019.9
20260510132643 63 241 0.0 0.0 0.00 0.00 0.00 99 1020.0
20260510132404 63 276 1.0 1.0 0.00 0.00 0.00 99 1019.8
20260510131642 63 252 0.0 0.0 0.00 0.00 0.00 99 1019.8
20260510131402 63 252 0.0 0.0 0.00 0.00 0.00 99 1019.7
20260510130642 63 252 0.0 0.0 0.00 0.00 0.00 99 1019.8
20260510130348 63 252 0.0 0.0 0.00 0.00 0.00 99 1019.6
20260510130114 62 248 0.0 0.0 0.00 0.00 0.00 99 1019.9
20260510125128 62 249 0.0 1.0 0.00 0.00 0.00 99 1019.6
20260510124628 62 246 0.0 0.0 0.00 0.00 0.00 99 1019.4
20260510124128 62 245 0.0 0.0 0.00 0.00 0.00 99 1019.4
20260510123849 62 252 0.0 0.0 0.00 0.00 0.00 99 1019.5
20260510123128 62 240 1.0 1.0 0.00 0.00 0.00 99 1019.6
20260510122628 62 266 0.0 0.0 0.00 0.00 0.00 99 1019.4
20260510122128 62 265 0.0 1.0 0.00 0.00 0.00 99 1019.5
20260510121628 62 246 0.0 1.0 0.00 0.00 0.00 99 1019.2
20260510121128 62 233 0.0 0.0 0.00 0.00 0.00 99 1019.1
20260510120627 62 264 0.0 0.0 0.00 0.00 0.00 99 1019.1
20260510120127 62 250 0.0 0.0 0.00 0.00 0.00 99 1019.0
20260510115849 62 246 0.0 0.0 0.00 0.00 0.00 99 1019.1
20260510115349 62 265 0.0 1.0 0.00 0.00 0.00 99 1018.7
20260510114627 62 236 0.0 0.0 0.00 0.00 0.00 99 1018.9
20260510114127 62 236 0.0 0.0 0.00 0.00 0.00 99 1018.7
20260510113627 62 236 0.0 0.0 0.00 0.00 0.00 99 1018.6
20260510113127 62 235 0.0 0.0 0.00 0.00 0.00 99 1018.2
20260510112627 62 234 0.0 0.0 0.00 0.00 0.00 99 1018.0
20260510112127 62 224 0.0 1.0 0.00 0.00 0.00 99 1018.1
20260510111627 62 249 0.0 1.0 0.00 0.00 0.00 99 1018.0
20260510111127 62 224 0.0 0.0 0.00 0.00 0.00 99 1017.9
20260510110627 62 251 0.0 0.0 0.00 0.00 0.00 99 1017.6
20260510110347 62 251 0.0 0.0 0.00 0.00 0.00 99 1017.7
20260510105848 62 253 0.0 0.0 0.00 0.00 0.00 99 1017.7
20260510105111 62 244 0.0 0.0 0.00 0.00 0.00 99 1017.8
20260510104611 62 246 0.0 0.0 0.00 0.00 0.00 99 1017.7
20260510104111 62 244 0.0 1.0 0.00 0.00 0.00 99 1017.7
20260510103556 62 225 0.0 2.0 0.00 0.00 0.00 99 1017.2
20260510103056 62 224 1.0 1.0 0.00 0.00 0.00 99 1017.1
20260510102556 62 257 0.0 1.0 0.00 0.00 0.00 99 1017.2
20260510102056 62 257 0.0 1.0 0.00 0.00 0.00 99 1017.1
20260510101556 62 216 0.0 0.0 0.00 0.00 0.00 99 1017.0
20260510101316 62 216 0.0 0.0 0.00 0.00 0.00 99 1017.4
20260510100556 62 216 0.0 0.0 0.00 0.00 0.00 99 1017.2
20260510100041 62 216 0.0 0.0 0.00 0.00 0.00 99 1016.9
20260510095541 62 216 0.0 0.0 0.00 0.00 0.00 99 1016.9
20260510095026 62 216 0.0 0.0 0.00 0.00 0.00 99 1016.9
20260510094526 62 216 0.0 0.0 0.00 0.00 0.00 99 1016.5
20260510094026 61 215 0.0 0.0 0.00 0.00 0.00 99 1016.8
20260510093526 61 215 0.0 0.0 0.00 0.00 0.00 99 1016.7
20260510093026 61 215 0.0 0.0 0.00 0.00 0.00 99 1016.6
20260510092526 60 215 0.0 0.0 0.00 0.00 0.00 99 1016.6
20260510092026 60 215 0.0 0.0 0.00 0.00 0.00 99 1016.5
20260510091511 60 215 0.0 0.0 0.00 0.00 0.00 99 1016.4
20260510091010 60 215 0.0 0.0 0.00 0.00 0.00 99 1016.6
20260510090510 60 215 0.0 0.0 0.00 0.00 0.00 99 1016.5
20260510085956 60 215 0.0 0.0 0.00 0.00 0.00 99 1016.4
20260510085456 59 215 0.0 0.0 0.00 0.00 0.00 99 1016.4
20260510085218 59 215 0.0 0.0 0.00 0.00 0.00 99 1016.3
20260510084456 59 215 0.0 0.0 0.00 0.00 0.00 99 1016.2
20260510083956 59 215 0.0 0.0 0.00 0.00 0.00 99 1016.3
20260510083456 59 215 0.0 0.0 0.00 0.00 0.00 99 1016.2
20260510082956 59 215 0.0 0.0 0.00 0.00 0.00 99 1016.2
20260510082456 59 215 0.0 0.0 0.00 0.00 0.00 99 1016.5
20260510081956 59 215 0.0 0.0 0.00 0.00 0.00 99 1016.3
20260510081942 60 215 0.0 0.0 0.00 0.00 0.00 99 1015.9
20260510081214 60 215 0.0 0.0 0.00 0.00 0.00 99 1016.1
20260510080455 60 216 0.0 0.0 0.00 0.00 0.00 99 1016.0
20260510075955 61 216 0.0 0.0 0.00 0.00 0.00 99 1015.9
20260510075717 61 216 0.0 0.0 0.00 0.00 0.00 99 1016.0
20260510074955 61 216 0.0 0.0 0.00 0.00 0.00 99 1015.8
20260510074455 62 216 0.0 0.0 0.00 0.00 0.00 99 1015.8
20260510074441 62 216 0.0 0.0 0.00 0.00 0.00 99 1016.0
20260510073717 62 216 0.0 0.0 0.00 0.00 0.00 99 1015.8
20260510072955 62 215 0.0 0.0 0.00 0.00 0.00 99 1015.7
20260510072455 62 228 0.0 1.0 0.00 0.00 0.00 99 1016.0
20260510072216 61 248 0.0 0.0 0.00 0.00 0.00 99 1016.1
20260510071455 61 250 0.0 0.0 0.00 0.00 0.00 99 1016.1
20260510070955 61 250 0.0 0.0 0.00 0.00 0.00 99 1016.0
20260510070455 61 251 0.0 0.0 0.00 0.00 0.00 99 1015.9
20260510065955 61 250 0.0 0.0 0.00 0.00 0.00 99 1016.1
20260510065454 61 251 0.0 0.0 0.00 0.00 0.00 99 1016.2
20260510064954 62 251 0.0 0.0 0.00 0.00 0.00 99 1016.1
20260510064454 62 251 0.0 0.0 0.00 0.00 0.00 99 1016.1
20260510063954 62 251 0.0 0.0 0.00 0.00 0.00 99 1016.3
20260510062454 60 251 0.0 0.0 0.00 0.00 0.00 99 1016.4
20260510061954 60 251 0.0 0.0 0.00 0.00 0.00 99 1016.5
20260510061716 60 251 0.0 0.0 0.00 0.00 0.00 99 1016.5
20260510060954 60 251 0.0 0.0 0.00 0.00 0.00 99 1016.4
20260510060454 60 251 0.0 0.0 0.00 0.00 0.00 99 1016.5
20260510055939 60 251 0.0 0.0 0.00 0.00 0.00 99 1016.6
20260510055439 60 251 0.0 0.0 0.00 0.00 0.00 99 1016.4
20260510054939 60 251 0.0 0.0 0.00 0.00 0.00 99 1016.3
20260510054439 60 251 0.0 0.0 0.00 0.00 0.00 99 1016.6
20260510053939 60 251 0.0 0.0 0.00 0.00 0.00 99 1016.6
20260510053439 60 251 0.0 0.0 0.00 0.00 0.00 99 1016.6
20260510052939 60 251 0.0 0.0 0.00 0.00 0.00 99 1016.5
20260510052658 60 251 0.0 0.0 0.00 0.00 0.00 99 1016.6
20260510051939 60 251 0.0 0.0 0.00 0.00 0.00 99 1016.4
20260510051700 60 251 0.0 0.0 0.00 0.00 0.00 99 1016.7
20260510050939 60 251 0.0 0.0 0.00 0.00 0.00 99 1016.6
20260510050439 60 251 0.0 0.0 0.00 0.00 0.00 99 1016.7
20260510045925 61 251 0.0 0.0 0.00 0.00 0.01 99 1016.6
20260510045424 61 251 0.0 0.0 0.00 0.00 0.01 99 1016.6
20260510044924 61 251 0.0 0.0 0.00 0.00 0.01 99 1016.8
20260510044424 61 251 0.0 0.0 0.00 0.00 0.01 99 1016.6
20260510043924 61 251 0.0 0.0 0.00 0.00 0.01 99 1016.5
20260510043424 61 251 0.0 0.0 0.00 0.00 0.01 99 1016.6
20260510042924 61 251 0.0 0.0 0.00 0.00 0.01 99 1016.7
20260510042645 61 251 0.0 0.0 0.00 0.00 0.01 99 1016.8
20260510041909 61 251 0.0 0.0 0.00 0.00 0.01 99 1016.7
20260510041409 61 251 0.0 0.0 0.00 0.00 0.01 99 1016.8
20260510040909 61 251 0.0 0.0 0.00 0.00 0.01 99 1016.8
20260510040409 61 251 0.0 0.0 0.00 0.00 0.01 99 1016.5
20260510035854 61 251 0.0 0.0 0.00 0.00 0.01 99 1016.8
20260510035354 61 251 0.0 0.0 0.00 0.00 0.01 99 1016.8
20260510034854 61 251 0.0 0.0 0.00 0.00 0.01 99 1016.6
20260510034354 61 251 0.0 0.0 0.00 0.00 0.01 99 1016.7
20260510033854 61 251 0.0 0.0 0.00 0.00 0.01 99 1016.6
20260510033354 62 251 0.0 0.0 0.00 0.00 0.01 99 1016.9
20260510032854 62 251 0.0 0.0 0.00 0.00 0.01 99 1017.0
20260510032354 62 251 0.0 0.0 0.00 0.00 0.01 99 1016.6
20260510031854 62 251 0.0 0.0 0.00 0.00 0.01 99 1016.7
20260510031354 62 251 0.0 0.0 0.00 0.00 0.01 99 1016.7
20260510030854 63 251 0.0 0.0 0.00 0.00 0.01 99 1016.6
20260510030340 63 251 0.0 0.0 0.00 0.00 0.01 99 1016.6
20260510025824 63 251 0.0 0.0 0.00 0.00 0.01 99 1016.6
20260510025324 63 251 0.0 0.0 0.00 0.00 0.01 99 1016.6
20260510024824 63 251 0.0 0.0 0.00 0.00 0.01 99 1016.6
20260510024324 63 252 0.0 0.0 0.00 0.00 0.01 99 1016.7
20260510023824 64 252 0.0 0.0 0.00 0.00 0.01 99 1016.5
20260510023323 64 252 0.0 0.0 0.00 0.00 0.01 99 1016.5
20260510023046 64 252 0.0 0.0 0.00 0.00 0.01 99 1016.4
20260510022531 64 251 0.0 0.0 0.00 0.00 0.01 99 1016.4
20260510021808 64 251 0.0 0.0 0.00 0.00 0.01 99 1016.3
20260510021308 64 252 0.0 0.0 0.00 0.00 0.01 99 1016.0
20260510021029 64 252 0.0 0.0 0.00 0.00 0.01 99 1016.0
20260510020254 64 252 0.0 0.0 0.00 0.00 0.01 99 1015.9
20260510020015 64 252 0.0 0.0 0.00 0.00 0.01 99 1015.8
20260510015516 64 252 0.0 0.0 0.00 0.00 0.01 99 1015.8
20260510014754 64 253 0.0 0.0 0.00 0.00 0.01 99 1015.5
20260510014514 64 252 0.0 0.0 0.00 0.00 0.01 99 1015.7
20260510013754 65 252 0.0 0.0 0.00 0.00 0.01 99 1015.2
20260510013254 65 263 0.0 0.0 0.00 0.00 0.01 99 1015.2
20260510012754 65 231 0.0 0.0 0.00 0.00 0.01 99 1015.3
20260510012254 65 231 0.0 0.0 0.00 0.00 0.01 99 1015.1
20260510011754 65 231 0.0 0.0 0.00 0.00 0.01 99 1015.0
20260510011254 65 231 0.0 0.0 0.00 0.00 0.01 99 1015.1
20260510010754 65 230 0.0 0.0 0.00 0.00 0.01 99 1015.0
20260510010239 65 230 0.0 0.0 0.00 0.00 0.01 99 1014.7
20260510005739 65 230 0.0 1.0 0.00 0.00 0.01 99 1014.7
20260510005239 65 239 0.0 0.0 0.00 0.00 0.01 99 1014.8
20260510004739 65 232 0.0 0.0 0.00 0.00 0.01 99 1014.5
20260510004239 65 232 0.0 0.0 0.00 0.00 0.01 99 1014.7
20260510003739 65 232 0.0 1.0 0.00 0.00 0.01 98 1014.7
20260510003239 65 246 0.0 0.0 0.00 0.00 0.01 98 1014.9
20260510003000 65 247 0.0 0.0 0.00 0.00 0.01 98 1014.8
20260510002239 66 252 0.0 1.0 0.00 0.00 0.01 98 1014.7
20260510001739 66 221 0.0 1.0 0.00 0.00 0.01 97 1014.7
20260510001239 66 233 0.0 0.0 0.00 0.00 0.01 97 1014.7
20260510000739 66 232 0.0 0.0 0.00 0.00 0.01 97 1014.5
20260510000226 66 232 0.0 0.0 0.00 0.00 0.01 96 1014.3
20260509235724 66 250 0.0 0.0 0.00 0.00 0.01 96 1014.3
20260509235224 66 250 0.0 0.0 0.00 0.00 0.01 96 1014.0
20260509234724 67 250 0.0 0.0 0.00 0.00 0.01 96 1013.9
20260509234224 67 251 0.0 0.0 0.00 0.00 0.01 95 1014.1
20260509233724 67 251 0.0 0.0 0.00 0.00 0.01 95 1013.7
20260509233224 67 251 0.0 0.0 0.00 0.00 0.01 95 1014.0
20260509232943 67 251 0.0 0.0 0.00 0.00 0.01 95 1013.8
20260509232224 67 251 0.0 1.0 0.00 0.00 0.01 94 1013.8
20260509231724 67 250 0.0 0.0 0.00 0.00 0.01 94 1013.9
20260509231446 68 250 0.0 0.0 0.00 0.00 0.01 93 1013.7
20260509230724 68 250 0.0 0.0 0.00 0.00 0.01 92 1013.8
20260509230709 68 251 0.0 0.0 0.00 0.00 0.01 90 1013.8
20260509225723 69 250 0.0 0.0 0.00 0.00 0.01 90 1013.6
20260509225223 69 251 0.0 0.0 0.00 0.00 0.01 90 1013.5
20260509224723 69 251 0.0 0.0 0.00 0.00 0.01 89 1013.2
20260509224444 70 251 0.0 0.0 0.00 0.00 0.01 89 1013.2
20260509223723 70 251 0.0 0.0 0.00 0.00 0.01 88 1013.3
20260509223223 70 251 0.0 0.0 0.00 0.00 0.01 87 1013.3
20260509222723 70 251 0.0 0.0 0.00 0.00 0.01 87 1013.1
20260509222223 70 251 0.0 0.0 0.00 0.00 0.01 87 1013.3
20260509221723 70 251 0.0 0.0 0.00 0.00 0.01 87 1013.2
20260509221223 70 251 0.0 0.0 0.00 0.00 0.01 87 1013.1
20260509220708 71 251 0.0 1.0 0.00 0.00 0.01 87 1013.2
20260509220153 71 276 0.0 0.0 0.00 0.00 0.01 86 1013.2
20260509215653 71 270 0.0 0.0 0.00 0.00 0.01 84 1013.0
20260509215153 71 271 0.0 0.0 0.00 0.00 0.01 86 1012.9
20260509214653 72 272 0.0 1.0 0.00 0.00 0.01 85 1012.9
20260509214153 72 241 0.0 0.0 0.00 0.00 0.01 85 1013.1
20260509213653 72 242 0.0 1.0 0.00 0.00 0.01 85 1013.0
20260509213413 72 259 0.0 1.0 0.00 0.00 0.01 83 1013.1
20260509212653 72 223 0.0 1.0 0.00 0.00 0.01 83 1012.8
20260509212153 73 219 1.0 2.0 0.00 0.00 0.01 78 1012.8
20260509211653 73 229 0.0 1.0 0.00 0.00 0.01 77 1012.8
20260509211152 74 226 2.0 2.0 0.00 0.00 0.01 74 1012.7
20260509210652 74 243 1.0 1.0 0.00 0.00 0.01 73 1012.8
20260509210138 73 237 0.0 1.0 0.00 0.00 0.01 79 1012.9
20260509205638 72 231 0.0 2.0 0.00 0.00 0.01 77 1012.9
20260509205138 73 226 0.0 1.0 0.00 0.00 0.01 79 1012.6
20260509204638 73 214 0.0 0.0 0.00 0.00 0.01 80 1012.5
20260509204138 73 253 1.0 2.0 0.00 0.00 0.01 77 1012.9
20260509203859 73 238 0.0 1.0 0.00 0.00 0.01 78 1012.8
20260509203138 73 243 1.0 2.0 0.00 0.00 0.01 74 1012.8
20260509202637 74 261 0.0 0.0 0.00 0.00 0.01 77 1012.9
20260509202138 74 260 0.0 1.0 0.00 0.00 0.01 76 1012.6